{"data":{"norad_id":68294,"epoch":"2026-05-24T20:44:28.119840Z","epoch_age_seconds":80559,"freshness":"FRESH","line1":"1 68294U 26057A   26144.86421435  .00288833  00000+0  18677-2 0  9991","line2":"2 68294  97.2841 271.0511 0001019 114.7286 245.4085 15.75250442 10272","mean_motion":15.75250442,"eccentricity":0.0001019,"inclination_deg":97.2841,"raan_deg":271.0511,"arg_perigee_deg":114.7286,"mean_anomaly_deg":245.4085,"bstar":0.0018677,"rev_number":1027,"period_min":91.414035610218,"perigee_km":343.23363656039,"apogee_km":344.60359149453,"semimajor_km":6722.0556140275,"source":"CELESTRAK","updated_at":"2026-05-25T13:38:21.915196Z"}}